Time,TemperatureF,DewpointF,PressureIn,WindDirection,WindDirectionDegrees,WindSpeedMPH,WindSpeedGustMPH,Humidity,HourlyPrecipIn,Conditions,Clouds,dailyrainin,SolarRadiationWatts/m^2,SoftwareType,DateUTC
2013-02-15 00:01:00,54.5,45.7,30.13,ENE,57,2.0,3.0,72,0.00,,,0.00,0.0,meteohub,2013-02-15 08:01:00,
2013-02-15 00:06:00,54.7,45.9,30.13,NE,53,3.0,4.0,72,0.00,,,0.00,0.0,meteohub,2013-02-15 08:06:00,
2013-02-15 00:11:00,54.9,45.3,30.13,ENE,63,3.0,5.0,70,0.00,,,0.00,0.0,meteohub,2013-02-15 08:11:00,
2013-02-15 00:16:00,55.2,45.7,30.13,NE,52,0.0,5.0,70,0.00,,,0.00,0.0,meteohub,2013-02-15 08:16:00,
2013-02-15 00:21:00,54.3,45.5,30.13,NE,53,0.0,5.0,72,0.00,,,0.00,0.0,meteohub,2013-02-15 08:21:00,
2013-02-15 00:26:00,53.8,45.3,30.13,ENE,61,2.0,4.0,73,0.00,,,0.00,0.0,meteohub,2013-02-15 08:26:00,
2013-02-15 00:31:00,54.1,45.3,30.13,ENE,58,2.0,4.0,72,0.00,,,0.00,0.0,meteohub,2013-02-15 08:31:00,
2013-02-15 00:36:00,54.1,45.3,30.13,ENE,58,0.0,5.0,72,0.00,,,0.00,0.0,meteohub,2013-02-15 08:36:00,
2013-02-15 00:41:00,53.1,45.3,30.13,NE,52,1.0,5.0,75,0.00,,,0.00,0.0,meteohub,2013-02-15 08:41:00,
2013-02-15 00:46:00,52.9,45.5,30.13,NE,53,4.0,4.0,76,0.00,,,0.00,0.0,meteohub,2013-02-15 08:46:00,
2013-02-15 00:51:00,53.4,45.3,30.13,NE,55,5.0,5.0,74,0.00,,,0.00,0.0,meteohub,2013-02-15 08:51:00,
2013-02-15 00:56:00,54.0,45.5,30.13,NE,53,3.0,5.0,73,0.00,,,0.00,0.0,meteohub,2013-02-15 08:56:00,
2013-02-15 01:01:00,54.0,45.5,30.13,ENE,60,0.0,5.0,73,0.00,,,0.00,0.0,meteohub,2013-02-15 09:01:00,
2013-02-15 01:06:00,53.4,45.3,30.13,ENE,73,2.0,5.0,74,0.00,,,0.00,0.0,meteohub,2013-02-15 09:06:00,
2013-02-15 01:11:00,54.0,45.5,30.14,NE,56,0.0,5.0,73,0.00,,,0.00,0.0,meteohub,2013-02-15 09:11:00,
2013-02-15 01:16:00,54.0,45.5,30.14,NE,53,2.0,5.0,73,0.00,,,0.00,0.0,meteohub,2013-02-15 09:16:00,
2013-02-15 01:21:00,54.0,45.5,30.14,NNE,19,3.0,4.0,73,0.00,,,0.00,0.0,meteohub,2013-02-15 09:21:00,
2013-02-15 01:26:00,54.0,45.5,30.14,NE,51,3.0,4.0,73,0.00,,,0.00,0.0,meteohub,2013-02-15 09:26:00,
2013-02-15 01:31:00,54.0,45.5,30.14,NE,36,2.0,4.0,73,0.00,,,0.00,0.0,meteohub,2013-02-15 09:31:00,
2013-02-15 01:36:00,54.0,45.1,30.14,ENE,64,4.0,5.0,72,0.00,,,0.00,0.0,meteohub,2013-02-15 09:36:00,
2013-02-15 01:41:00,54.0,45.1,30.14,North,0,3.0,5.0,72,0.00,,,0.00,0.0,meteohub,2013-02-15 09:41:00,
2013-02-15 01:46:00,54.1,45.0,30.14,East,86,3.0,6.0,71,0.00,,,0.00,0.0,meteohub,2013-02-15 09:46:00,
2013-02-15 01:51:00,54.1,45.0,30.14,ENE,71,1.0,6.0,71,0.00,,,0.00,0.0,meteohub,2013-02-15 09:51:00,
2013-02-15 01:56:00,54.1,45.0,30.14,NE,49,2.0,6.0,71,0.00,,,0.00,0.0,meteohub,2013-02-15 09:56:00,
2013-02-15 02:01:00,54.1,44.6,30.14,East,81,3.0,6.0,70,0.00,,,0.00,0.0,meteohub,2013-02-15 10:01:00,
2013-02-15 02:06:00,54.3,44.8,30.14,NE,48,3.0,6.0,70,0.00,,,0.00,0.0,meteohub,2013-02-15 10:06:00,
2013-02-15 02:11:00,54.3,44.4,30.14,NE,46,4.0,7.0,69,0.00,,,0.00,0.0,meteohub,2013-02-15 10:11:00,
2013-02-15 02:16:00,54.7,45.1,30.14,NE,41,3.0,9.0,70,0.00,,,0.00,0.0,meteohub,2013-02-15 10:16:00,
2013-02-15 02:21:00,54.5,45.0,30.14,NE,44,5.0,9.0,70,0.00,,,0.00,0.0,meteohub,2013-02-15 10:21:00,
2013-02-15 02:26:00,54.3,44.8,30.14,ENE,65,3.0,9.0,70,0.00,,,0.00,0.0,meteohub,2013-02-15 10:26:00,
2013-02-15 02:31:00,54.1,45.0,30.14,NE,47,6.0,8.0,71,0.00,,,0.00,0.0,meteohub,2013-02-15 10:31:00,
2013-02-15 02:36:00,54.0,44.8,30.13,NE,54,6.0,10.0,71,0.00,,,0.00,0.0,meteohub,2013-02-15 10:36:00,
2013-02-15 02:41:00,54.0,45.1,30.13,NE,50,5.0,10.0,72,0.00,,,0.00,0.0,meteohub,2013-02-15 10:41:00,
2013-02-15 02:46:00,54.0,45.1,30.13,NE,44,3.0,10.0,72,0.00,,,0.00,0.0,meteohub,2013-02-15 10:46:00,
2013-02-15 02:51:00,54.0,45.1,30.13,NE,52,5.0,7.0,72,0.00,,,0.00,0.0,meteohub,2013-02-15 10:51:00,
2013-02-15 02:57:00,54.0,44.8,30.13,ENE,62,2.0,7.0,71,0.00,,,0.00,0.0,meteohub,2013-02-15 10:57:00,
2013-02-15 03:01:00,54.0,44.4,30.14,East,90,1.0,7.0,70,0.00,,,0.00,0.0,meteohub,2013-02-15 11:01:00,
2013-02-15 03:07:00,54.1,44.6,30.14,ENE,70,2.0,6.0,70,0.00,,,0.00,0.0,meteohub,2013-02-15 11:07:00,
2013-02-15 03:12:00,54.1,44.6,30.13,NE,51,3.0,6.0,70,0.00,,,0.00,0.0,meteohub,2013-02-15 11:12:00,
2013-02-15 03:17:00,54.1,44.6,30.14,NE,50,3.0,7.0,70,0.00,,,0.00,0.0,meteohub,2013-02-15 11:17:00,
2013-02-15 03:22:00,54.1,44.2,30.14,NE,49,6.0,7.0,69,0.00,,,0.00,0.0,meteohub,2013-02-15 11:22:00,
2013-02-15 03:27:00,54.3,44.1,30.13,NE,52,4.0,7.0,68,0.00,,,0.00,0.0,meteohub,2013-02-15 11:27:00,
2013-02-15 03:32:00,54.3,43.2,30.13,NE,34,5.0,7.0,66,0.00,,,0.00,0.0,meteohub,2013-02-15 11:32:00,
2013-02-15 03:37:00,54.3,43.2,30.13,ENE,67,4.0,7.0,66,0.00,,,0.00,0.0,meteohub,2013-02-15 11:37:00,
2013-02-15 03:42:00,54.3,42.8,30.13,NE,46,5.0,7.0,65,0.00,,,0.00,0.0,meteohub,2013-02-15 11:42:00,
2013-02-15 03:47:00,54.5,43.0,30.12,ENE,74,1.0,6.0,65,0.00,,,0.00,0.0,meteohub,2013-02-15 11:47:00,
2013-02-15 03:52:00,54.7,42.8,30.13,NE,48,2.0,6.0,64,0.00,,,0.00,0.0,meteohub,2013-02-15 11:52:00,
2013-02-15 03:57:00,54.7,42.8,30.13,ENE,61,1.0,6.0,64,0.00,,,0.00,0.0,meteohub,2013-02-15 11:57:00,
2013-02-15 04:02:00,54.7,42.8,30.13,East,98,3.0,5.0,64,0.00,,,0.00,0.0,meteohub,2013-02-15 12:02:00,
2013-02-15 04:07:00,54.3,42.4,30.13,East,88,2.0,5.0,64,0.00,,,0.00,0.0,meteohub,2013-02-15 12:07:00,
2013-02-15 04:12:00,54.3,42.4,30.13,East,86,1.0,4.0,64,0.00,,,0.00,0.0,meteohub,2013-02-15 12:12:00,
2013-02-15 04:17:00,54.3,42.4,30.13,NE,51,3.0,4.0,64,0.00,,,0.00,0.0,meteohub,2013-02-15 12:17:00,
2013-02-15 04:22:00,54.3,42.4,30.14,NE,56,4.0,4.0,64,0.00,,,0.00,0.0,meteohub,2013-02-15 12:22:00,
2013-02-15 04:27:00,54.1,42.3,30.14,NE,49,4.0,5.0,64,0.00,,,0.00,0.0,meteohub,2013-02-15 12:27:00,
2013-02-15 04:32:00,54.1,42.3,30.14,East,90,3.0,5.0,64,0.00,,,0.00,0.0,meteohub,2013-02-15 12:32:00,
2013-02-15 04:37:00,54.1,42.3,30.14,NE,55,4.0,5.0,64,0.00,,,0.00,0.0,meteohub,2013-02-15 12:37:00,
2013-02-15 04:42:00,54.0,42.1,30.14,ENE,74,3.0,5.0,64,0.00,,,0.00,0.0,meteohub,2013-02-15 12:42:00,
2013-02-15 04:47:00,54.0,42.1,30.14,ENE,71,2.0,5.0,64,0.00,,,0.00,0.0,meteohub,2013-02-15 12:47:00,
2013-02-15 04:52:00,53.8,41.9,30.14,ENE,61,4.0,5.0,64,0.00,,,0.00,0.0,meteohub,2013-02-15 12:52:00,
2013-02-15 04:57:00,53.8,41.9,30.14,ENE,61,4.0,6.0,64,0.00,,,0.00,0.0,meteohub,2013-02-15 12:57:00,
2013-02-15 05:02:00,53.8,41.5,30.14,ENE,65,6.0,6.0,63,0.00,,,0.00,0.0,meteohub,2013-02-15 13:02:00,
2013-02-15 05:07:00,54.0,41.7,30.14,ENE,70,3.0,6.0,63,0.00,,,0.00,0.0,meteohub,2013-02-15 13:07:00,
2013-02-15 05:12:00,54.0,41.7,30.14,ENE,65,4.0,6.0,63,0.00,,,0.00,0.0,meteohub,2013-02-15 13:12:00,
2013-02-15 05:17:00,53.8,41.5,30.14,ENE,61,5.0,7.0,63,0.00,,,0.00,0.0,meteohub,2013-02-15 13:17:00,
2013-02-15 05:22:00,53.8,41.9,30.15,ENE,58,4.0,7.0,64,0.00,,,0.00,0.0,meteohub,2013-02-15 13:22:00,
2013-02-15 05:27:00,53.6,41.7,30.14,East,80,4.0,7.0,64,0.00,,,0.00,0.0,meteohub,2013-02-15 13:27:00,
2013-02-15 05:32:00,53.6,41.7,30.15,NE,36,4.0,7.0,64,0.00,,,0.00,0.0,meteohub,2013-02-15 13:32:00,
2013-02-15 05:37:00,53.6,41.7,30.15,ENE,60,5.0,7.0,64,0.00,,,0.00,0.0,meteohub,2013-02-15 13:37:00,
2013-02-15 05:42:00,53.6,41.4,30.15,ENE,57,4.0,7.0,63,0.00,,,0.00,0.0,meteohub,2013-02-15 13:42:00,
2013-02-15 05:47:00,53.6,41.7,30.15,ENE,74,5.0,7.0,64,0.00,,,0.00,0.0,meteohub,2013-02-15 13:47:00,
2013-02-15 05:52:00,53.6,41.4,30.15,ENE,57,3.0,7.0,63,0.00,,,0.00,0.0,meteohub,2013-02-15 13:52:00,
2013-02-15 05:57:00,53.6,41.4,30.15,ENE,61,3.0,7.0,63,0.00,,,0.00,0.0,meteohub,2013-02-15 13:57:00,
2013-02-15 06:02:00,53.6,40.8,30.15,NE,51,2.0,6.0,62,0.00,,,0.00,0.0,meteohub,2013-02-15 14:02:00,
2013-02-15 06:07:00,53.8,40.6,30.15,NE,51,3.0,6.0,61,0.00,,,0.00,0.0,meteohub,2013-02-15 14:07:00,
2013-02-15 06:12:00,53.8,40.6,30.15,NE,55,4.0,6.0,61,0.00,,,0.00,0.0,meteohub,2013-02-15 14:12:00,
2013-02-15 06:17:00,53.8,40.6,30.15,ENE,69,6.0,6.0,61,0.00,,,0.00,0.0,meteohub,2013-02-15 14:17:00,
2013-02-15 06:22:00,54.0,40.5,30.15,ENE,57,3.0,6.0,60,0.00,,,0.00,0.0,meteohub,2013-02-15 14:22:00,
2013-02-15 06:27:00,54.0,40.5,30.15,ENE,58,4.0,7.0,60,0.00,,,0.00,0.0,meteohub,2013-02-15 14:27:00,
2013-02-15 06:32:00,54.0,40.5,30.15,ENE,67,4.0,7.0,60,0.00,,,0.00,0.0,meteohub,2013-02-15 14:32:00,
2013-02-15 06:37:00,54.0,40.8,30.15,NE,54,4.0,7.0,61,0.00,,,0.00,0.0,meteohub,2013-02-15 14:37:00,
2013-02-15 06:42:00,54.0,40.8,30.15,ENE,59,3.0,7.0,61,0.00,,,0.00,0.0,meteohub,2013-02-15 14:42:00,
2013-02-15 06:47:00,54.0,40.8,30.15,NE,51,4.0,9.0,61,0.00,,,0.00,0.0,meteohub,2013-02-15 14:47:00,
2013-02-15 06:51:00,53.6,40.5,30.16,ENE,63,2.0,9.0,61,0.00,,,0.00,0.0,meteohub,2013-02-15 14:51:00,
2013-02-15 06:57:00,53.4,40.6,30.16,ENE,59,5.0,7.0,62,0.00,,,0.00,5.0,meteohub,2013-02-15 14:57:00,
2013-02-15 07:02:00,53.2,40.6,30.16,ENE,78,2.0,7.0,62,0.00,,,0.00,7.0,meteohub,2013-02-15 15:02:00,
2013-02-15 07:07:00,53.4,40.6,30.16,East,95,5.0,7.0,62,0.00,,,0.00,11.0,meteohub,2013-02-15 15:07:00,
2013-02-15 07:12:00,53.8,40.6,30.16,ENE,57,1.0,7.0,61,0.00,,,0.00,14.0,meteohub,2013-02-15 15:12:00,
2013-02-15 07:17:00,54.0,40.8,30.16,NE,44,4.0,7.0,61,0.00,,,0.00,18.0,meteohub,2013-02-15 15:17:00,
2013-02-15 07:22:00,54.0,40.8,30.16,ENE,65,4.0,7.0,61,0.00,,,0.00,21.0,meteohub,2013-02-15 15:22:00,
2013-02-15 07:27:00,54.1,41.0,30.17,ENE,67,2.0,5.0,61,0.00,,,0.00,23.0,meteohub,2013-02-15 15:27:00,
2013-02-15 07:32:00,54.3,41.2,30.17,East,92,1.0,6.0,61,0.00,,,0.00,30.0,meteohub,2013-02-15 15:32:00,
2013-02-15 07:36:00,54.3,41.2,30.17,NE,47,4.0,6.0,61,0.00,,,0.00,47.0,meteohub,2013-02-15 15:36:00,
2013-02-15 07:42:00,54.3,41.5,30.17,NE,55,3.0,6.0,62,0.00,,,0.00,67.0,meteohub,2013-02-15 15:42:00,
2013-02-15 07:47:00,54.3,41.5,30.17,ESE,103,4.0,5.0,62,0.00,,,0.00,84.0,meteohub,2013-02-15 15:47:00,
2013-02-15 07:52:00,54.7,41.9,30.17,East,100,2.0,5.0,62,0.00,,,0.00,102.0,meteohub,2013-02-15 15:52:00,
2013-02-15 07:57:00,54.9,41.7,30.17,East,86,3.0,5.0,61,0.00,,,0.00,121.0,meteohub,2013-02-15 15:57:00,
2013-02-15 08:02:00,55.2,42.1,30.17,East,85,3.0,5.0,61,0.00,,,0.00,141.0,meteohub,2013-02-15 16:02:00,
2013-02-15 08:06:00,55.6,41.9,30.17,East,93,3.0,5.0,60,0.00,,,0.00,160.0,meteohub,2013-02-15 16:06:00,
2013-02-15 08:12:00,55.9,41.9,30.17,East,94,2.0,6.0,59,0.00,,,0.00,178.0,meteohub,2013-02-15 16:12:00,
2013-02-15 08:17:00,56.1,41.9,30.17,East,88,3.0,6.0,59,0.00,,,0.00,199.0,meteohub,2013-02-15 16:17:00,
2013-02-15 08:22:00,56.5,42.3,30.18,ENE,65,3.0,6.0,59,0.00,,,0.00,218.0,meteohub,2013-02-15 16:22:00,
2013-02-15 08:27:00,56.5,42.3,30.18,NE,37,4.0,8.0,59,0.00,,,0.00,237.0,meteohub,2013-02-15 16:27:00,
2013-02-15 08:32:00,56.7,42.1,30.18,NE,51,5.0,8.0,58,0.00,,,0.00,253.0,meteohub,2013-02-15 16:32:00,
2013-02-15 08:37:00,57.0,42.8,30.18,East,82,1.0,8.0,59,0.00,,,0.00,271.0,meteohub,2013-02-15 16:37:00,
2013-02-15 08:42:00,57.7,42.6,30.18,East,88,3.0,8.0,57,0.00,,,0.00,287.0,meteohub,2013-02-15 16:42:00,
2013-02-15 08:47:00,58.3,42.6,30.18,ESE,108,3.0,8.0,56,0.00,,,0.00,299.0,meteohub,2013-02-15 16:47:00,
2013-02-15 08:52:00,58.6,43.0,30.18,ESE,107,5.0,7.0,56,0.00,,,0.00,315.0,meteohub,2013-02-15 16:52:00,
2013-02-15 08:57:00,59.2,43.5,30.18,SE,136,0.0,7.0,56,0.00,,,0.00,332.0,meteohub,2013-02-15 16:57:00,
2013-02-15 09:02:00,60.1,43.0,30.18,ENE,72,1.0,7.0,53,0.00,,,0.00,348.0,meteohub,2013-02-15 17:02:00,
2013-02-15 09:07:00,60.1,42.4,30.18,ESE,108,2.0,7.0,52,0.00,,,0.00,364.0,meteohub,2013-02-15 17:07:00,
2013-02-15 09:12:00,60.1,41.9,30.18,ESE,119,5.0,7.0,51,0.00,,,0.00,378.0,meteohub,2013-02-15 17:12:00,
2013-02-15 09:17:00,59.7,42.1,30.19,SSE,148,3.0,9.0,52,0.00,,,0.00,390.0,meteohub,2013-02-15 17:17:00,
2013-02-15 09:22:00,59.5,41.9,30.19,ESE,117,3.0,9.0,52,0.00,,,0.00,404.0,meteohub,2013-02-15 17:22:00,
2013-02-15 09:27:00,59.7,42.1,30.19,East,92,4.0,9.0,52,0.00,,,0.00,418.0,meteohub,2013-02-15 17:27:00,
2013-02-15 09:32:00,60.4,42.8,30.19,ESE,104,4.0,9.0,52,0.00,,,0.00,432.0,meteohub,2013-02-15 17:32:00,
2013-02-15 09:37:00,60.1,43.0,30.19,ESE,113,0.0,9.0,53,0.00,,,0.00,446.0,meteohub,2013-02-15 17:37:00,
2013-02-15 09:42:00,61.0,42.8,30.19,ESE,103,4.0,9.0,51,0.00,,,0.00,461.0,meteohub,2013-02-15 17:42:00,
2013-02-15 09:47:00,61.0,42.3,30.19,ENE,75,2.0,9.0,50,0.00,,,0.00,476.0,meteohub,2013-02-15 17:47:00,
2013-02-15 09:52:00,61.2,42.4,30.19,East,86,3.0,10.0,50,0.00,,,0.00,482.0,meteohub,2013-02-15 17:52:00,
2013-02-15 09:57:00,61.3,41.5,30.19,ESE,109,4.0,10.0,48,0.00,,,0.00,496.0,meteohub,2013-02-15 17:57:00,
2013-02-15 10:02:00,61.9,41.9,30.19,ESE,111,0.0,7.0,48,0.00,,,0.00,506.0,meteohub,2013-02-15 18:02:00,
2013-02-15 10:07:00,62.8,41.2,30.19,SE,133,3.0,7.0,45,0.00,,,0.00,520.0,meteohub,2013-02-15 18:07:00,
2013-02-15 10:12:00,62.1,41.0,30.19,ESE,109,5.0,9.0,46,0.00,,,0.00,531.0,meteohub,2013-02-15 18:12:00,
2013-02-15 10:17:00,63.0,41.9,30.19,ESE,103,6.0,10.0,46,0.00,,,0.00,540.0,meteohub,2013-02-15 18:17:00,
2013-02-15 10:22:00,62.8,41.7,30.19,SSE,161,3.0,11.0,46,0.00,,,0.00,550.0,meteohub,2013-02-15 18:22:00,
2013-02-15 10:26:00,63.3,39.2,30.19,NE,49,3.0,11.0,41,0.00,,,0.00,561.0,meteohub,2013-02-15 18:26:00,
2013-02-15 10:31:00,63.3,39.9,30.19,ESE,115,4.0,11.0,42,0.00,,,0.00,573.0,meteohub,2013-02-15 18:31:00,
2013-02-15 10:37:00,64.0,39.9,30.19,SE,143,6.0,8.0,41,0.00,,,0.00,582.0,meteohub,2013-02-15 18:37:00,
2013-02-15 10:41:00,63.3,38.7,30.19,SE,146,4.0,10.0,40,0.00,,,0.00,587.0,meteohub,2013-02-15 18:41:00,
2013-02-15 10:46:00,63.9,39.0,30.19,SE,130,1.0,10.0,40,0.00,,,0.00,598.0,meteohub,2013-02-15 18:46:00,
2013-02-15 10:51:00,64.2,40.6,30.19,SE,134,3.0,10.0,42,0.00,,,0.00,606.0,meteohub,2013-02-15 18:51:00,
2013-02-15 10:56:00,63.9,39.0,30.19,East,94,7.0,9.0,40,0.00,,,0.00,613.0,meteohub,2013-02-15 18:56:00,
2013-02-15 11:01:00,63.9,39.7,30.19,ESE,109,2.0,10.0,41,0.00,,,0.00,619.0,meteohub,2013-02-15 19:01:00,
2013-02-15 11:06:00,64.6,40.3,30.19,ESE,107,7.0,10.0,41,0.00,,,0.00,628.0,meteohub,2013-02-15 19:06:00,
2013-02-15 11:11:00,64.8,41.2,30.19,ESE,123,5.0,10.0,42,0.00,,,0.00,633.0,meteohub,2013-02-15 19:11:00,
2013-02-15 11:16:00,64.9,40.1,30.19,ESE,113,3.0,10.0,40,0.00,,,0.00,640.0,meteohub,2013-02-15 19:16:00,
2013-02-15 11:21:00,64.8,40.5,30.19,ESE,117,4.0,10.0,41,0.00,,,0.00,647.0,meteohub,2013-02-15 19:21:00,
2013-02-15 11:26:00,65.5,41.2,30.19,ESE,117,4.0,10.0,41,0.00,,,0.00,650.0,meteohub,2013-02-15 19:26:00,
2013-02-15 11:32:00,65.7,41.4,30.19,SSE,160,3.0,9.0,41,0.00,,,0.00,657.0,meteohub,2013-02-15 19:32:00,
2013-02-15 11:37:00,66.4,41.9,30.19,SE,135,0.0,8.0,41,0.00,,,0.00,659.0,meteohub,2013-02-15 19:37:00,
2013-02-15 11:41:00,66.6,40.8,30.19,East,88,2.0,8.0,39,0.00,,,0.00,664.0,meteohub,2013-02-15 19:41:00,
2013-02-15 11:47:00,66.7,40.3,30.19,ESE,115,7.0,9.0,38,0.00,,,0.00,668.0,meteohub,2013-02-15 19:47:00,
2013-02-15 11:52:00,66.7,40.3,30.18,East,98,9.0,10.0,38,0.00,,,0.00,671.0,meteohub,2013-02-15 19:52:00,
2013-02-15 11:57:00,66.9,40.5,30.18,SSW,197,4.0,10.0,38,0.00,,,0.00,673.0,meteohub,2013-02-15 19:57:00,
2013-02-15 12:02:00,67.5,39.6,30.18,ENE,68,3.0,10.0,36,0.00,,,0.00,675.0,meteohub,2013-02-15 20:02:00,
2013-02-15 12:07:00,67.8,39.9,30.18,ENE,77,3.0,9.0,36,0.00,,,0.00,675.0,meteohub,2013-02-15 20:07:00,
2013-02-15 12:12:00,67.8,40.6,30.18,SE,134,2.0,9.0,37,0.00,,,0.00,677.0,meteohub,2013-02-15 20:12:00,
2013-02-15 12:17:00,68.0,40.1,30.18,East,80,2.0,7.0,36,0.00,,,0.00,679.0,meteohub,2013-02-15 20:17:00,
2013-02-15 12:21:00,68.5,41.9,30.17,East,95,3.0,10.0,38,0.00,,,0.00,679.0,meteohub,2013-02-15 20:21:00,
2013-02-15 12:26:00,67.6,41.2,30.17,ENE,71,5.0,10.0,38,0.00,,,0.00,680.0,meteohub,2013-02-15 20:26:00,
2013-02-15 12:31:00,68.4,41.0,30.17,SE,132,1.0,10.0,37,0.00,,,0.00,679.0,meteohub,2013-02-15 20:31:00,
2013-02-15 12:36:00,68.7,40.6,30.17,East,101,2.0,10.0,36,0.00,,,0.00,677.0,meteohub,2013-02-15 20:36:00,
2013-02-15 12:41:00,69.3,41.2,30.17,ENE,70,2.0,7.0,36,0.00,,,0.00,675.0,meteohub,2013-02-15 20:41:00,
2013-02-15 12:46:00,69.4,42.1,30.16,ESE,123,1.0,7.0,37,0.00,,,0.00,675.0,meteohub,2013-02-15 20:46:00,
2013-02-15 12:52:00,68.5,39.7,30.16,NNE,32,7.0,7.0,35,0.00,,,0.00,673.0,meteohub,2013-02-15 20:52:00,
2013-02-15 12:57:00,69.3,41.9,30.16,ENE,74,2.0,11.0,37,0.00,,,0.00,671.0,meteohub,2013-02-15 20:57:00,
2013-02-15 13:02:00,70.3,41.4,30.16,ENE,67,4.0,11.0,35,0.00,,,0.00,666.0,meteohub,2013-02-15 21:02:00,
2013-02-15 13:07:00,70.5,40.1,30.16,East,84,2.0,11.0,33,0.00,,,0.00,664.0,meteohub,2013-02-15 21:07:00,
2013-02-15 13:12:00,70.5,40.8,30.15,ENE,76,3.0,9.0,34,0.00,,,0.00,661.0,meteohub,2013-02-15 21:12:00,
2013-02-15 13:17:00,70.2,39.7,30.15,ENE,62,1.0,9.0,33,0.00,,,0.00,656.0,meteohub,2013-02-15 21:17:00,
2013-02-15 13:22:00,69.8,40.1,30.15,East,96,5.0,8.0,34,0.00,,,0.00,652.0,meteohub,2013-02-15 21:22:00,
2013-02-15 13:27:00,70.7,39.4,30.15,SE,125,6.0,9.0,32,0.00,,,0.00,647.0,meteohub,2013-02-15 21:27:00,
2013-02-15 13:32:00,70.7,40.1,30.15,SSE,163,1.0,9.0,33,0.00,,,0.00,642.0,meteohub,2013-02-15 21:32:00,
2013-02-15 13:37:00,71.1,40.5,30.15,SE,133,2.0,9.0,33,0.00,,,0.00,635.0,meteohub,2013-02-15 21:37:00,
2013-02-15 13:42:00,71.6,40.1,30.15,East,85,3.0,7.0,32,0.00,,,0.00,629.0,meteohub,2013-02-15 21:42:00,
2013-02-15 13:47:00,70.2,40.5,30.15,NE,40,2.0,7.0,34,0.00,,,0.00,621.0,meteohub,2013-02-15 21:47:00,
2013-02-15 13:52:00,71.4,41.5,30.15,NE,56,0.0,7.0,34,0.00,,,0.00,617.0,meteohub,2013-02-15 21:52:00,
2013-02-15 13:57:00,71.2,40.6,30.15,South,173,3.0,7.0,33,0.00,,,0.00,608.0,meteohub,2013-02-15 21:57:00,
2013-02-15 14:02:00,72.7,41.9,30.15,WNW,287,0.0,6.0,33,0.00,,,0.00,599.0,meteohub,2013-02-15 22:02:00,
2013-02-15 14:07:00,72.7,41.2,30.14,ESE,113,4.0,6.0,32,0.00,,,0.00,594.0,meteohub,2013-02-15 22:07:00,
2013-02-15 14:12:00,72.1,39.9,30.14,SSE,161,3.0,10.0,31,0.00,,,0.00,582.0,meteohub,2013-02-15 22:12:00,
2013-02-15 14:16:00,71.6,39.4,30.14,SE,140,3.0,10.0,31,0.00,,,0.00,573.0,meteohub,2013-02-15 22:16:00,
2013-02-15 14:22:00,72.0,40.5,30.14,SSE,165,4.0,10.0,32,0.00,,,0.00,564.0,meteohub,2013-02-15 22:22:00,
2013-02-15 14:27:00,72.1,39.9,30.14,SE,130,3.0,7.0,31,0.00,,,0.00,555.0,meteohub,2013-02-15 22:27:00,
2013-02-15 14:32:00,72.1,40.6,30.14,SE,132,5.0,7.0,32,0.00,,,0.00,543.0,meteohub,2013-02-15 22:32:00,
2013-02-15 14:37:00,72.0,39.7,30.14,SSE,148,2.0,6.0,31,0.00,,,0.00,534.0,meteohub,2013-02-15 22:37:00,
2013-02-15 14:42:00,72.7,41.2,30.14,ESE,107,4.0,7.0,32,0.00,,,0.00,522.0,meteohub,2013-02-15 22:42:00,
2013-02-15 14:47:00,73.6,41.0,30.14,NE,51,2.0,7.0,31,0.00,,,0.00,510.0,meteohub,2013-02-15 22:47:00,
2013-02-15 14:51:00,73.6,39.4,30.14,East,87,5.0,6.0,29,0.00,,,0.00,499.0,meteohub,2013-02-15 22:51:00,
2013-02-15 14:57:00,72.9,40.5,30.14,NE,54,1.0,7.0,31,0.00,,,0.00,483.0,meteohub,2013-02-15 22:57:00,
2013-02-15 15:02:00,72.1,41.4,30.14,East,79,1.0,7.0,33,0.00,,,0.00,473.0,meteohub,2013-02-15 23:02:00,
2013-02-15 15:07:00,72.5,41.0,30.14,ENE,77,2.0,7.0,32,0.00,,,0.00,461.0,meteohub,2013-02-15 23:07:00,
2013-02-15 15:12:00,71.4,41.5,30.14,ENE,65,1.0,6.0,34,0.00,,,0.00,446.0,meteohub,2013-02-15 23:12:00,
2013-02-15 15:17:00,71.1,41.4,30.14,ENE,59,3.0,6.0,34,0.00,,,0.00,431.0,meteohub,2013-02-15 23:17:00,
2013-02-15 15:22:00,71.1,40.5,30.14,NE,39,1.0,5.0,33,0.00,,,0.00,418.0,meteohub,2013-02-15 23:22:00,
2013-02-15 15:27:00,72.0,41.4,30.14,NE,55,4.0,5.0,33,0.00,,,0.00,404.0,meteohub,2013-02-15 23:27:00,
2013-02-15 15:32:00,71.4,40.1,30.14,NE,52,0.0,5.0,32,0.00,,,0.00,390.0,meteohub,2013-02-15 23:32:00,
2013-02-15 15:37:00,71.4,41.5,30.14,ESE,107,1.0,5.0,34,0.00,,,0.00,378.0,meteohub,2013-02-15 23:37:00,
2013-02-15 15:42:00,71.2,41.4,30.14,NW,323,0.0,5.0,34,0.00,,,0.00,369.0,meteohub,2013-02-15 23:42:00,
2013-02-15 15:47:00,71.1,41.4,30.14,East,87,3.0,5.0,34,0.00,,,0.00,348.0,meteohub,2013-02-15 23:47:00,
2013-02-15 15:52:00,71.2,40.6,30.14,ENE,74,2.0,5.0,33,0.00,,,0.00,332.0,meteohub,2013-02-15 23:52:00,
2013-02-15 15:57:00,70.7,40.1,30.13,NE,51,1.0,5.0,33,0.00,,,0.00,318.0,meteohub,2013-02-15 23:57:00,
2013-02-15 16:02:00,70.5,40.1,30.13,NE,54,2.0,7.0,33,0.00,,,0.00,302.0,meteohub,2013-02-16 00:02:00,
2013-02-15 16:07:00,70.5,41.5,30.13,East,83,0.0,7.0,35,0.00,,,0.00,283.0,meteohub,2013-02-16 00:07:00,
2013-02-15 16:12:00,70.3,40.6,30.13,ENE,64,3.0,6.0,34,0.00,,,0.00,267.0,meteohub,2013-02-16 00:12:00,
2013-02-15 16:17:00,70.2,40.5,30.13,North,5,2.0,6.0,34,0.00,,,0.00,248.0,meteohub,2013-02-16 00:17:00,
2013-02-15 16:22:00,70.0,40.3,30.13,NNE,20,4.0,5.0,34,0.00,,,0.00,227.0,meteohub,2013-02-16 00:22:00,
2013-02-15 16:27:00,69.6,39.9,30.13,NNE,26,3.0,7.0,34,0.00,,,0.00,206.0,meteohub,2013-02-16 00:27:00,
2013-02-15 16:32:00,69.6,39.9,30.13,NNE,26,4.0,7.0,34,0.00,,,0.00,185.0,meteohub,2013-02-16 00:32:00,
2013-02-15 16:37:00,69.4,40.6,30.13,NE,48,3.0,7.0,35,0.00,,,0.00,163.0,meteohub,2013-02-16 00:37:00,
2013-02-15 16:42:00,69.3,40.5,30.13,NNE,13,3.0,6.0,35,0.00,,,0.00,148.0,meteohub,2013-02-16 00:42:00,
2013-02-15 16:47:00,69.1,40.3,30.13,NNE,18,2.0,6.0,35,0.00,,,0.00,128.0,meteohub,2013-02-16 00:47:00,
2013-02-15 16:52:00,69.1,40.3,30.14,NNE,30,3.0,5.0,35,0.00,,,0.00,109.0,meteohub,2013-02-16 00:52:00,
2013-02-15 16:57:00,68.9,40.8,30.13,NNE,17,3.0,6.0,36,0.00,,,0.00,91.0,meteohub,2013-02-16 00:57:00,
2013-02-15 17:02:00,68.5,40.5,30.13,NNE,29,4.0,6.0,36,0.00,,,0.00,76.0,meteohub,2013-02-16 01:02:00,
2013-02-15 17:07:00,68.4,41.0,30.13,North,9,3.0,6.0,37,0.00,,,0.00,60.0,meteohub,2013-02-16 01:07:00,
2013-02-15 17:12:00,68.2,41.0,30.13,North,5,3.0,6.0,37,0.00,,,0.00,46.0,meteohub,2013-02-16 01:12:00,
2013-02-15 17:17:00,67.8,41.4,30.13,NNE,18,2.0,6.0,38,0.00,,,0.00,32.0,meteohub,2013-02-16 01:17:00,
2013-02-15 17:22:00,67.5,41.0,30.13,North,5,4.0,5.0,38,0.00,,,0.00,23.0,meteohub,2013-02-16 01:22:00,
2013-02-15 17:26:00,67.1,41.4,30.13,North,0,2.0,5.0,39,0.00,,,0.00,19.0,meteohub,2013-02-16 01:26:00,
2013-02-15 17:32:00,66.9,41.2,30.13,NNE,22,3.0,5.0,39,0.00,,,0.00,18.0,meteohub,2013-02-16 01:32:00,
2013-02-15 17:37:00,66.7,41.0,30.13,NNE,13,3.0,5.0,39,0.00,,,0.00,14.0,meteohub,2013-02-16 01:37:00,
2013-02-15 17:42:00,66.4,41.4,30.13,NNE,24,1.0,5.0,40,0.00,,,0.00,11.0,meteohub,2013-02-16 01:42:00,
2013-02-15 17:47:00,66.2,41.2,30.13,North,5,1.0,5.0,40,0.00,,,0.00,7.0,meteohub,2013-02-16 01:47:00,
2013-02-15 17:52:00,66.0,41.7,30.13,North,0,5.0,6.0,41,0.00,,,0.00,5.0,meteohub,2013-02-16 01:52:00,
2013-02-15 17:57:00,65.8,41.5,30.13,North,350,4.0,6.0,41,0.00,,,0.00,0.0,meteohub,2013-02-16 01:57:00,
2013-02-15 18:02:00,65.7,41.4,30.13,North,5,3.0,6.0,41,0.00,,,0.00,0.0,meteohub,2013-02-16 02:02:00,
2013-02-15 18:07:00,65.5,41.2,30.13,NNE,32,2.0,6.0,41,0.00,,,0.00,0.0,meteohub,2013-02-16 02:07:00,
2013-02-15 18:12:00,65.3,41.0,30.13,NNW,340,2.0,6.0,41,0.00,,,0.00,0.0,meteohub,2013-02-16 02:12:00,
2013-02-15 18:17:00,65.1,41.5,30.13,NNE,13,2.0,7.0,42,0.00,,,0.00,0.0,meteohub,2013-02-16 02:17:00,
2013-02-15 18:22:00,64.9,41.4,30.13,NNE,19,1.0,7.0,42,0.00,,,0.00,0.0,meteohub,2013-02-16 02:22:00,
2013-02-15 18:27:00,64.9,41.4,30.13,NE,38,2.0,7.0,42,0.00,,,0.00,0.0,meteohub,2013-02-16 02:27:00,
2013-02-15 18:32:00,64.8,41.7,30.14,NE,47,4.0,5.0,43,0.00,,,0.00,0.0,meteohub,2013-02-16 02:32:00,
2013-02-15 18:37:00,64.6,41.5,30.13,NE,53,1.0,5.0,43,0.00,,,0.00,0.0,meteohub,2013-02-16 02:37:00,
2013-02-15 18:42:00,64.4,41.4,30.14,North,0,3.0,5.0,43,0.00,,,0.00,0.0,meteohub,2013-02-16 02:42:00,
2013-02-15 18:47:00,64.2,41.9,30.14,NNE,26,3.0,5.0,44,0.00,,,0.00,0.0,meteohub,2013-02-16 02:47:00,
2013-02-15 18:52:00,64.0,41.7,30.14,NE,46,1.0,5.0,44,0.00,,,0.00,0.0,meteohub,2013-02-16 02:52:00,
2013-02-15 18:57:00,63.9,41.5,30.14,NE,40,1.0,5.0,44,0.00,,,0.00,0.0,meteohub,2013-02-16 02:57:00,
2013-02-15 19:02:00,63.7,41.4,30.14,NNE,15,1.0,5.0,44,0.00,,,0.00,0.0,meteohub,2013-02-16 03:02:00,
2013-02-15 19:07:00,63.7,41.9,30.14,NNW,348,1.0,4.0,45,0.00,,,0.00,0.0,meteohub,2013-02-16 03:07:00,
2013-02-15 19:12:00,63.5,41.7,30.14,NE,34,0.0,4.0,45,0.00,,,0.00,0.0,meteohub,2013-02-16 03:12:00,
2013-02-15 19:17:00,63.3,41.5,30.14,NNE,30,3.0,4.0,45,0.00,,,0.00,0.0,meteohub,2013-02-16 03:17:00,
2013-02-15 19:21:00,63.1,41.5,30.14,NNE,15,3.0,4.0,45,0.00,,,0.00,0.0,meteohub,2013-02-16 03:21:00,
2013-02-15 19:26:00,63.1,41.5,30.14,NNE,23,3.0,4.0,45,0.00,,,0.00,0.0,meteohub,2013-02-16 03:26:00,
2013-02-15 19:31:00,63.0,41.4,30.14,NNE,26,2.0,4.0,45,0.00,,,0.00,0.0,meteohub,2013-02-16 03:31:00,
2013-02-15 19:36:00,63.1,41.5,30.14,North,11,3.0,4.0,45,0.00,,,0.00,0.0,meteohub,2013-02-16 03:36:00,
2013-02-15 19:41:00,63.1,41.5,30.15,North,5,3.0,4.0,45,0.00,,,0.00,0.0,meteohub,2013-02-16 03:41:00,
2013-02-15 19:47:00,63.1,41.5,30.14,North,10,1.0,4.0,45,0.00,,,0.00,0.0,meteohub,2013-02-16 03:47:00,
2013-02-15 19:52:00,63.1,42.1,30.14,NE,44,0.0,4.0,46,0.00,,,0.00,0.0,meteohub,2013-02-16 03:52:00,
2013-02-15 19:57:00,62.4,41.9,30.14,NE,44,0.0,4.0,47,0.00,,,0.00,0.0,meteohub,2013-02-16 03:57:00,
2013-02-15 20:02:00,61.9,41.9,30.14,NE,44,0.0,2.0,48,0.00,,,0.00,0.0,meteohub,2013-02-16 04:02:00,
2013-02-15 20:07:00,62.1,41.5,30.14,NE,38,2.0,2.0,47,0.00,,,0.00,0.0,meteohub,2013-02-16 04:07:00,
2013-02-15 20:12:00,62.1,41.5,30.14,NE,54,3.0,3.0,47,0.00,,,0.00,0.0,meteohub,2013-02-16 04:12:00,
2013-02-15 20:17:00,62.1,42.6,30.14,NE,53,0.0,3.0,49,0.00,,,0.00,0.0,meteohub,2013-02-16 04:17:00,
2013-02-15 20:22:00,61.7,42.3,30.14,NE,53,0.0,3.0,49,0.00,,,0.00,0.0,meteohub,2013-02-16 04:22:00,
2013-02-15 20:27:00,61.5,42.3,30.14,NE,53,0.0,3.0,49,0.00,,,0.00,0.0,meteohub,2013-02-16 04:27:00,
2013-02-15 20:32:00,61.0,42.8,30.15,NE,53,0.0,1.0,51,0.00,,,0.00,0.0,meteohub,2013-02-16 04:32:00,
2013-02-15 20:37:00,60.4,42.8,30.15,NE,53,0.0,1.0,52,0.00,,,0.00,0.0,meteohub,2013-02-16 04:37:00,
2013-02-15 20:42:00,60.1,42.4,30.15,NE,53,0.0,1.0,52,0.00,,,0.00,0.0,meteohub,2013-02-16 04:42:00,
2013-02-15 20:47:00,60.3,42.6,30.15,NE,53,0.0,1.0,52,0.00,,,0.00,0.0,meteohub,2013-02-16 04:47:00,
2013-02-15 20:52:00,60.6,41.9,30.15,NE,53,0.0,0.0,50,0.00,,,0.00,0.0,meteohub,2013-02-16 04:52:00,
2013-02-15 20:57:00,60.4,42.3,30.16,NE,53,0.0,0.0,51,0.00,,,0.00,0.0,meteohub,2013-02-16 04:57:00,
2013-02-15 21:00:00,60.3,42.1,30.16,NE,53,0.0,0.0,51,-99.99,,,0.00,0.0,meteohub,2013-02-16 05:00:00,
2013-02-15 21:05:00,60.4,41.2,30.16,NNE,33,1.0,1.0,49,0.00,,,0.00,0.0,meteohub,2013-02-16 05:05:00,
2013-02-15 21:10:00,60.8,41.5,30.16,NNE,28,1.0,4.0,49,0.00,,,0.00,0.0,meteohub,2013-02-16 05:10:00,
2013-02-15 21:15:00,61.2,41.4,30.16,NNE,31,3.0,4.0,48,0.00,,,0.00,0.0,meteohub,2013-02-16 05:15:00,
2013-02-15 21:20:00,61.2,41.4,30.16,NNE,25,1.0,4.0,48,0.00,,,0.00,0.0,meteohub,2013-02-16 05:20:00,
2013-02-15 21:23:00,61.0,41.2,30.16,NE,41,0.0,4.0,48,0.00,,,0.00,0.0,meteohub,2013-02-16 05:23:00,
2013-02-15 21:28:00,61.0,41.7,30.16,NE,36,2.0,3.0,49,0.00,,,0.00,0.0,meteohub,2013-02-16 05:28:00,
2013-02-15 21:33:00,61.0,41.7,30.16,NNE,30,2.0,3.0,49,0.00,,,0.00,0.0,meteohub,2013-02-16 05:33:00,
2013-02-15 21:38:00,61.0,41.7,30.16,NNE,32,3.0,4.0,49,0.00,,,0.00,0.0,meteohub,2013-02-16 05:38:00,
2013-02-15 21:43:00,60.8,41.5,30.16,NE,40,3.0,4.0,49,0.00,,,0.00,0.0,meteohub,2013-02-16 05:43:00,
2013-02-15 21:48:00,60.6,41.4,30.16,NE,46,3.0,4.0,49,0.00,,,0.00,0.0,meteohub,2013-02-16 05:48:00,
2013-02-15 21:53:00,60.6,41.4,30.16,ENE,61,4.0,4.0,49,0.00,,,0.00,0.0,meteohub,2013-02-16 05:53:00,
2013-02-15 21:58:00,60.6,41.4,30.16,NE,38,3.0,4.0,49,0.00,,,0.00,0.0,meteohub,2013-02-16 05:58:00,
2013-02-15 22:03:00,60.6,41.4,30.16,NE,48,3.0,5.0,49,0.00,,,0.00,0.0,meteohub,2013-02-16 06:03:00,
2013-02-15 22:08:00,60.4,41.2,30.16,NE,52,4.0,5.0,49,0.00,,,0.00,0.0,meteohub,2013-02-16 06:08:00,
2013-02-15 22:13:00,60.3,41.0,30.16,NE,39,4.0,5.0,49,0.00,,,0.00,0.0,meteohub,2013-02-16 06:13:00,
2013-02-15 22:18:00,60.1,40.8,30.16,NE,48,2.0,5.0,49,0.00,,,0.00,0.0,meteohub,2013-02-16 06:18:00,
2013-02-15 22:23:00,59.9,41.2,30.16,NE,55,2.0,5.0,50,0.00,,,0.00,0.0,meteohub,2013-02-16 06:23:00,
2013-02-15 22:28:00,59.7,41.5,30.15,NE,55,3.0,5.0,51,0.00,,,0.00,0.0,meteohub,2013-02-16 06:28:00,
2013-02-15 22:33:00,59.7,41.5,30.15,NE,55,3.0,4.0,51,0.00,,,0.00,0.0,meteohub,2013-02-16 06:33:00,
2013-02-15 22:38:00,59.7,41.0,30.15,NE,44,3.0,5.0,50,0.00,,,0.00,0.0,meteohub,2013-02-16 06:38:00,
2013-02-15 22:43:00,59.5,40.8,30.15,NE,53,2.0,5.0,50,0.00,,,0.00,0.0,meteohub,2013-02-16 06:43:00,
2013-02-15 22:48:00,59.4,40.6,30.15,NE,53,2.0,5.0,50,0.00,,,0.00,0.0,meteohub,2013-02-16 06:48:00,
2013-02-15 22:53:00,58.8,40.8,30.15,NE,50,2.0,5.0,51,0.00,,,0.00,0.0,meteohub,2013-02-16 06:53:00,
2013-02-15 22:58:00,58.6,41.0,30.15,ENE,66,4.0,4.0,52,0.00,,,0.00,0.0,meteohub,2013-02-16 06:58:00,
2013-02-15 23:03:00,58.6,41.0,30.15,NE,55,4.0,4.0,52,0.00,,,0.00,0.0,meteohub,2013-02-16 07:03:00,
2013-02-15 23:08:00,58.6,41.0,30.15,NE,44,3.0,6.0,52,0.00,,,0.00,0.0,meteohub,2013-02-16 07:08:00,
2013-02-15 23:13:00,58.6,41.0,30.15,NE,49,3.0,6.0,52,0.00,,,0.00,0.0,meteohub,2013-02-16 07:13:00,
2013-02-15 23:18:00,58.5,40.8,30.15,ENE,78,2.0,6.0,52,0.00,,,0.00,0.0,meteohub,2013-02-16 07:18:00,
2013-02-15 23:23:00,58.3,41.2,30.15,NE,42,4.0,5.0,53,0.00,,,0.00,0.0,meteohub,2013-02-16 07:23:00,
2013-02-15 23:28:00,58.5,41.4,30.15,NNE,17,3.0,6.0,53,0.00,,,0.00,0.0,meteohub,2013-02-16 07:28:00,
2013-02-15 23:33:00,58.6,41.0,30.15,NE,38,5.0,6.0,52,0.00,,,0.00,0.0,meteohub,2013-02-16 07:33:00,
2013-02-15 23:38:00,58.6,41.5,30.15,NNE,25,3.0,6.0,53,0.00,,,0.00,0.0,meteohub,2013-02-16 07:38:00,
2013-02-15 23:43:00,58.6,41.5,30.15,ENE,58,3.0,6.0,53,0.00,,,0.00,0.0,meteohub,2013-02-16 07:43:00,
2013-02-15 23:48:00,58.5,41.9,30.15,NNE,26,3.0,6.0,54,0.00,,,0.00,0.0,meteohub,2013-02-16 07:48:00,
2013-02-15 23:53:00,58.5,42.4,30.15,ENE,59,0.0,6.0,55,0.00,,,0.00,0.0,meteohub,2013-02-16 07:53:00,
2013-02-15 23:58:00,57.6,41.9,30.15,ENE,63,3.0,6.0,56,0.00,,,0.00,0.0,meteohub,2013-02-16 07:58:00,